Regional Weather Roundup
Issued by NWS

Home | Current Version | Previous Version | Text Only | Print | Product List | Glossary Off
Versions: 1 2 3 4 5 6 7 8 9 10 11 12 13 14 15 16 17 18 19 20 21 22 23 24 25 26 27 28 29 30 31 32 33 34 35 36 37 38 39 40 41 42 43 44 45 46 47 48 49 50

000
ASUS43 KOAX 192110
RWRNE

WEATHER ROUNDUP FOR NEBRASKA
NATIONAL WEATHER SERVICE OMAHA NE
300 PM CST SUN NOV 19 2017

NOTES: SATELLITE DATA IS BEING USED TO AUGMENT CLOUD COVER ABOVE
       12000 FEET.
       "FAIR" INDICATES FEW OR NO CLOUDS BELOW 12,000 FEET WITH NO
       SIGNIFICANT WEATHER AND/OR OBSTRUCTIONS TO VISIBILITY.


NEZ001>004-019>022-054>056-192200-
NEBRASKA PANHANDLE

CITY           SKY/WX    TMP DP  RH WIND       PRES   REMARKS
SCOTTSBLUFF    CLOUDY    59   5  11 W23G32    29.93F
ALLIANCE       SUNNY     57  13  17 W14       29.92F
CHADRON        CLOUDY    58  16  19 W14       29.88F
GORDON         FAIR      56  19  23 W12       29.89F
KIMBALL        CLOUDY    58  11  15 NW12      29.99F
SIDNEY         SUNNY     60  15  17 W9        29.98F
$$

NEZ057>060-069>072-079>082-192200-
SOUTHWEST NEBRASKA

CITY           SKY/WX    TMP DP  RH WIND       PRES   REMARKS
NORTH PLATTE   SUNNY     59  22  24 W9        29.96F
IMPERIAL       CLOUDY    61  17  18 SW8       29.98F
LEXINGTON      SUNNY     58  23  25 SW12      29.99F
MCCOOK         SUNNY     61  20  20 SW14G22   29.99F
OGALLALA       CLOUDY    60  20  21 W13       29.96F
$$

NEZ005>010-023>029-035>040-094-192200-
NORTH CENTRAL NEBRASKA

CITY           SKY/WX    TMP DP  RH WIND       PRES   REMARKS
VALENTINE      CLOUDY    59  18  20 SW13      29.88F
AINSWORTH      SUNNY     57  22  26 SW10      29.90F
BROKEN BOW     SUNNY     58  23  26 W16G24    29.95F
O`NEILL        SUNNY     57  25  29 SW10G17   29.92F
ORD            SUNNY     57  21  24 W16       29.94F
THEDFORD       SUNNY     58  20  23 W13       29.93F
$$

NEZ041-046>049-061>064-073>077-083>087-192200-
SOUTH CENTRAL NEBRASKA

CITY           SKY/WX    TMP DP  RH WIND       PRES   REMARKS
GRAND ISLAND   SUNNY     56  25  30 SW18      30.00F
AURORA         SUNNY     56  23  27 SW16G24   30.00F
HASTINGS       SUNNY     57  21  24 SW12G21   30.01F
HEBRON         SUNNY     57  22  25 SW10G18   30.05F
HOLDREGE       SUNNY     58  24  27 SW13G21   30.00F
KEARNEY        SUNNY     57  22  25 SW14      30.00F
YORK           SUNNY     57  23  26 SW10G22   30.01F
$$

NEZ011>018-030>034-042>045-192200-
NORTHEAST NEBRASKA

CITY           SKY/WX    TMP DP  RH WIND       PRES   REMARKS
NORFOLK        SUNNY     55  23  28 SW15      29.96S
ALBION         SUNNY     56  23  27 SW13G20   29.96F
BLAIR          SUNNY     54  28  37 S17       30.00F
COLUMBUS       SUNNY     56  25  30 SW12G25   29.99F
FREMONT        SUNNY     54  24  30 SW14      30.01F
TEKAMAH        SUNNY     54  26  34 SW20      29.99F
WAYNE          SUNNY     54  19  25 SW16G22   29.96S
$$

NEZ050>053-065>068-078-088>093-192200-
SOUTHEAST NEBRASKA

CITY           SKY/WX    TMP DP  RH WIND       PRES   REMARKS
LINCOLN        SUNNY     56  23  27 SW17      30.03F
OMAHA EPPLEY   MOSUNNY   54  26  34 SW10      30.02F
BEATRICE       SUNNY     56  23  28 SW16      30.05F
FALLS CITY     SUNNY     55  26  32 SW15      30.07F
NEBRASKA CITY  SUNNY     55  26  32 SW21      30.05F
PLATTSMOUTH    SUNNY     55  27  33 SW14      30.04F
$$

NEZ044-045-051>053-067-192200-
OMAHA AREA

CITY           SKY/WX    TMP DP  RH WIND       PRES   REMARKS
OMAHA EPPLEY   MOSUNNY   54  26  34 SW10      30.02F
BLAIR          SUNNY     54  28  37 S17       30.00F
FREMONT        SUNNY     54  24  30 SW14      30.01F
MILLARD        SUNNY     56  26  31 SW10G16   30.01F
OFFUTT AFB     SUNNY     55  25  31 SW12G20   30.02F
PLATTSMOUTH    SUNNY     55  27  33 SW14      30.04F
WAHOO          FAIR      56  24  28 SW15G21   30.01F
$$




USA.gov is the U.S. government's official web portal to all federal, state and local government web resources and services.